Location: Jetmore Oil Field
(38.1181°N, 99.9337°W)
Time: 08:21:43
(UTC+00:00)

Tsikada Rocket - Pass Details

Date: 17 February 2020
Orbit: 958 x 1009 km, 82.9° (Epoch: 09 April)

Event Time Altitude Azimuth Distance (km) Brightness Sun altitude
Rises 01:33:44 0° 356° (N) 3,714 7.1 -15.3°
Reaches altitude 10° 01:36:18 10° 359° (N) 2,768 6.4 -15.8°
Maximum altitude 01:42:37 65° 81° (E) 1,095 4.0 -17.0°
Drops below altitude 10° 01:48:57 10° 163° (SSE) 2,774 6.2 -18.3°
Sets 01:51:30 0° 166° (SSE) 3,723 6.9 -18.8°
